Regional Weather Roundup
Issued by NWS

Home | Current Version | Previous Version | Text Only | Print | Product List | Glossary On
Versions: 1 2 3 4 5 6 7 8 9 10 11 12 13 14 15 16 17 18 19 20 21 22 23 24 25 26 27 28
000
ASUS46 KPQR 170810
RWROR

OREGON REGIONAL WEATHER ROUNDUP
NATIONAL WEATHER SERVICE PORTLAND OR
100 AM PDT THU AUG 17 2017

NOTE: "FAIR" INDICATES FEW OR NO CLOUDS BELOW 12,000 FEET WITH
NO SIGNIFICANT WEATHER AND/OR OBSTRUCTIONS TO VISIBILITY.

ORZ001>013-170900-
NORTHWEST OREGON


CITY           SKY/WX    TMP DP  RH WIND       PRES   REMARKS
ASTORIA        CLOUDY    60  53  77 W8        30.16S
NEWPORT        CLOUDY    57  57 100 N3        30.19S FOG
PORTLAND       PTCLDY    65  58  78 NW7       30.12R
VANCOUVER WA   CLEAR     65  59  81 NW6       30.12R
SCAPPOOSE      MOCLDY    64  57  78 CALM      30.12R
HILLSBORO      CLEAR     62  57  83 N7        30.12R
AURORA         CLEAR     65  56  72 N5        30.13S
MCMINNVILLE    CLEAR     61  58  90 W5        30.13R
SALEM          CLEAR     64  56  75 NW7       30.11R
CORVALLIS      CLEAR     63  55  77 NW5       30.13S
EUGENE         CLEAR     61  54  77 NW5       30.12R
$$

ORZ021-028-170900-
SOUTHWEST OREGON


CITY           SKY/WX    TMP DP  RH WIND       PRES   REMARKS
NORTH BEND     PTCLDY    59  58  96 N8        30.15S
BROOKINGS      CLEAR     82  52  35 VRB7      30.00S
ROSEBURG       CLEAR     72  55  55 N5        30.10R
SEXTON SUMMIT  CLEAR     62  47  57 N8G23     30.19F
GRANTS PASS    FAIR      70  52  52 CALM      30.12S
MEDFORD        CLEAR     71  50  47 S3        30.08R
$$

ORZ014>016-041-170900-
COLUMBIA GORGE


CITY           SKY/WX    TMP DP  RH WIND       PRES   REMARKS
TROUTDALE      CLOUDY    66  58  75 VRB3      30.12R
HOOD RIVER     CLEAR     68  55  64 NW12G18   30.05R
THE DALLES     CLEAR     73  57  57 NW16      30.00R
$$

ORZ029>031-041-044-049-050-061>064-502-503-505>511-170900-
EASTERN OREGON


CITY           SKY/WX    TMP DP  RH WIND       PRES   REMARKS
MADRAS         CLEAR     59  48  67 CALM      30.13S
REDMOND        CLEAR     54  42  64 SE6       30.13S
BEND           CLEAR     59  45  58 CALM      30.17R
PRINEVILLE     CLEAR     54  41  62 CALM      30.15S
KLAMATH FALLS  CLEAR     56  50  80 CALM      30.17R
LAKEVIEW       CLEAR    N/A N/A N/A NW7       30.20R
HERMISTON      CLEAR     73  53  49 SW13      29.96S
PENDLETON      CLEAR     71  50  47 W15G23    30.00R
JOHN DAY       CLEAR     64  45  51 CALM      30.13S
MEACHAM        CLEAR     60  43  53 CALM      30.11R
LA GRANDE      NOT AVBL
BAKER CITY     CLEAR     56  44  64 CALM      30.09R HAZE
BURNS          CLEAR     56  36  47 NW3       30.14R
ROME             N/A     66  33  29 CALM      30.10R
ONTARIO        CLEAR     73  43  33 W9        29.99R
$$




USA.gov is the U.S. government's official web portal to all federal, state and local government web resources and services.